Weather History for Medicine Hat, AB

Change the Weather History Date:

Saturday, December 29, 2012

  Actual Average Record
Temperature  
Mean Temperature -2 °F -  
Max Temperature 23 °F 23 °F 50 °F (1999)
Min Temperature -28 °F 2 °F -28 °F (2012)
Degree Days  
Heating Degree Days 68    
Moisture  
Dew Point 11 °F    
Average Humidity 82    
Maximum Humidity 93    
Minimum Humidity 63    
Precipitation  
Precipitation 0.00 in 0.02 in - ()
Sea Level Pressure  
Sea Level Pressure 30.03 in    
Wind  
Wind Speed 9 mph ()    
Max Wind Speed 16 mph    
Max Gust Speed 21 mph    
Visibility 10.9 miles    
Events Snow    
Averages and records for this station are not official NWS values.
T = Trace of Precipitation, MM = Missing Value Source: Averaged Metar Reports

Daily Weather History Graph

Daily Weather History Graph

Search for Another Location

Airport:

Trip Planner

Search our weather history database for the weather conditions in past years. The results will help you decide how hot, cold, wet, or windy it might be!

Date:

Astronomy

Dec. 29, 2012 Rise Set
Actual Time 8:21 AM MST 4:29 PM MST
Civil Twilight 7:43 AM MST 5:07 PM MST
Nautical Twilight 7:01 AM MST 5:49 PM MST
Astronomical Twilight 6:22 AM MST 6:28 PM MST
Moon 6:16 PM MST (12/29) 8:47 AM MST (12/29)
Length of Visible Light 9h 24m
Length of Day
8h 07m
Full, 98% of the Moon is Illuminated
Dec 29
Full
Jan 4
Last Quarter
Jan 11
New
Jan 18
First Quarter
Jan 26
Full

Hourly Weather History & Observations

Time (MST) Temp. Windchill Dew Point Humidity Pressure Visibility Wind Dir Wind Speed Gust Speed Precip Events Conditions
12:00 AM 15.8 °F 2.1 °F 12.2 °F 86% 30.06 in 9.0 mi SW 12.7 mph - N/A   Scattered Clouds
1:00 AM 15.8 °F 3.4 °F 12.2 °F 86% 30.05 in 9.0 mi WSW 10.4 mph - N/A   Mostly Cloudy
2:00 AM 19.4 °F 6.0 °F 14.0 °F 80% 30.04 in 9.0 mi SW 13.8 mph 20.7 mph N/A   Mostly Cloudy
3:00 AM 15.8 °F 2.1 °F 10.4 °F 79% 30.06 in 9.0 mi SW 12.7 mph - N/A   Clear
4:00 AM 15.8 °F 3.4 °F 10.4 °F 79% 30.06 in 9.0 mi SW 10.4 mph - N/A   Clear
5:00 AM -20 °F - -25 °F 63% 29.84 in - South 13.8 mph - -  
5:00 AM 14.0 °F 2.9 °F 10.4 °F 86% 30.04 in 9.0 mi SW 8.1 mph - N/A   Clear
6:00 AM 15.8 °F 3.4 °F 12.2 °F 86% 30.04 in 15.0 mi SSW 10.4 mph - N/A   Overcast
7:00 AM 17.6 °F 9.3 °F 14.0 °F 86% 30.04 in 15.0 mi SW 5.8 mph - N/A   Overcast
8:00 AM 19.4 °F 10.4 °F 15.8 °F 86% 30.04 in 30.0 mi SW 6.9 mph - N/A   Mostly Cloudy
9:00 AM 21.2 °F 11.7 °F 17.6 °F 86% 30.03 in 30.0 mi SSW 8.1 mph - N/A   Overcast
10:00 AM 24.8 °F 16.1 °F 19.4 °F 80% 30.04 in 30.0 mi SW 8.1 mph - N/A   Overcast
11:00 AM -22 °F - -27 °F 64% 29.83 in - South 11.5 mph - -  
11:00 AM 26.6 °F 17.5 °F 21.2 °F 80% 30.02 in 30.0 mi SW 9.2 mph - N/A   Overcast
1:00 PM 28.4 °F 18.0 °F 21.2 °F 74% 29.99 in 30.0 mi SW 12.7 mph - N/A   Overcast
2:00 PM 28.4 °F 20.4 °F 23.0 °F 80% 29.99 in 30.0 mi SW 8.1 mph - N/A   Overcast
3:00 PM 26.6 °F 20.0 °F 21.2 °F 80% 30.03 in 30.0 mi WNW 5.8 mph - N/A   Overcast
4:00 PM 24.8 °F 19.1 °F 21.2 °F 86% 30.04 in 30.0 mi NW 4.6 mph - N/A   Overcast
5:00 PM -18 °F - -23 °F 65% 29.84 in - South 16.1 mph - -  
5:00 PM 23.0 °F - 19.4 °F 86% 30.05 in 30.0 mi Calm Calm - N/A   Overcast
6:00 PM 21.2 °F 12.6 °F 17.6 °F 86% 30.07 in 15.0 mi NW 6.9 mph - N/A   Mostly Cloudy
7:00 PM 19.4 °F 8.6 °F 15.8 °F 86% 30.08 in 15.0 mi West 9.2 mph - N/A   Overcast
8:00 PM 21.2 °F - 17.6 °F 86% 30.09 in 15.0 mi WSW 2.3 mph - N/A   Overcast
9:00 PM 21.2 °F 14.9 °F 17.6 °F 86% 30.10 in 9.0 mi West 4.6 mph - N/A   Overcast
9:35 PM 19.4 °F 11.5 °F 17.6 °F 93% 30.10 in 9.0 mi South 5.8 mph - N/A Snow Light Snow
9:44 PM 19.4 °F 12.8 °F 17.6 °F 93% 30.11 in 9.0 mi South 4.6 mph - N/A   Overcast
10:00 PM 19.4 °F 14.3 °F 17.6 °F 93% 30.11 in 9.0 mi South 3.5 mph - N/A   Overcast
11:00 PM -21 °F - -26 °F 66% 29.88 in - South 12.7 mph - -  
11:00 PM 19.4 °F 9.5 °F 17.6 °F 93% 30.12 in 9.0 mi SSW 8.1 mph - N/A   Overcast